Time,TemperatureF,DewpointF,PressureIn,WindDirection,WindDirectionDegrees,WindSpeedMPH,WindSpeedGustMPH,Humidity,HourlyPrecipIn,Conditions,Clouds,dailyrainin,SoftwareType,DateUTC
2013-10-13 00:00:00,48.0,-99.9,-100.00,SE,145,3.0,11.0,-999,-99.99,,,-99.99,,2013-10-13 06:00:00,
2013-10-13 00:52:00,48.0,-99.9,-100.00,SE,145,3.0,11.0,-999,-99.99,,,-99.99,,2013-10-13 06:52:00,
2013-10-13 01:00:00,46.0,-99.9,-100.00,East,88,3.0,6.0,-999,-99.99,,,-99.99,,2013-10-13 07:00:00,
2013-10-13 01:52:00,46.0,-99.9,-100.00,East,88,3.0,6.0,-999,-99.99,,,-99.99,,2013-10-13 07:52:00,
2013-10-13 02:00:00,46.0,-99.9,-100.00,ENE,71,4.0,6.0,-999,-99.99,,,-99.99,,2013-10-13 08:00:00,
2013-10-13 02:52:00,46.0,-99.9,-100.00,ENE,71,4.0,6.0,-999,-99.99,,,-99.99,,2013-10-13 08:52:00,
2013-10-13 03:00:00,44.0,-99.9,-100.00,East,94,8.0,9.0,-999,-99.99,,,-99.99,,2013-10-13 09:00:00,
2013-10-13 03:53:00,44.0,-99.9,-100.00,East,94,8.0,9.0,-999,-99.99,,,-99.99,,2013-10-13 09:53:00,
2013-10-13 04:00:00,44.0,-99.9,-100.00,ESE,106,4.0,6.0,-999,-99.99,,,-99.99,,2013-10-13 10:00:00,
2013-10-13 04:53:00,44.0,-99.9,-100.00,ESE,106,4.0,6.0,-999,-99.99,,,-99.99,,2013-10-13 10:53:00,
2013-10-13 05:00:00,44.0,-99.9,-100.00,ENE,70,4.0,6.0,-999,-99.99,,,-99.99,,2013-10-13 11:00:00,
2013-10-13 05:52:00,44.0,-99.9,-100.00,ENE,70,4.0,6.0,-999,-99.99,,,-99.99,,2013-10-13 11:52:00,
2013-10-13 06:00:00,44.0,-99.9,-100.00,SE,129,5.0,8.0,-999,-99.99,,,-99.99,,2013-10-13 12:00:00,
2013-10-13 06:53:00,44.0,-99.9,-100.00,SE,129,5.0,8.0,-999,-99.99,,,-99.99,,2013-10-13 12:53:00,
2013-10-13 07:00:00,42.0,-99.9,-100.00,East,79,4.0,5.0,-999,-99.99,,,-99.99,,2013-10-13 13:00:00,
2013-10-13 07:52:00,42.0,-99.9,-100.00,East,79,4.0,5.0,-999,-99.99,,,-99.99,,2013-10-13 13:52:00,
2013-10-13 08:00:00,44.0,-99.9,-100.00,South,175,9.0,9.0,-999,-99.99,,,-99.99,,2013-10-13 14:00:00,
2013-10-13 08:52:00,44.0,-99.9,-100.00,South,175,9.0,9.0,-999,-99.99,,,-99.99,,2013-10-13 14:52:00,
2013-10-13 09:00:00,50.0,-99.9,-100.00,South,179,5.0,9.0,-999,-99.99,,,-99.99,,2013-10-13 15:00:00,
2013-10-13 09:54:00,50.0,-99.9,-100.00,South,179,5.0,9.0,-999,-99.99,,,-99.99,,2013-10-13 15:54:00,
2013-10-13 10:00:00,57.0,-99.9,-100.00,SSW,202,13.0,24.0,-999,-99.99,,,-99.99,,2013-10-13 16:00:00,
2013-10-13 10:55:00,57.0,-99.9,-100.00,SSW,202,13.0,24.0,-999,-99.99,,,-99.99,,2013-10-13 16:55:00,
2013-10-13 11:00:00,59.0,-99.9,-100.00,South,189,20.0,29.0,-999,-99.99,,,-99.99,,2013-10-13 17:00:00,
2013-10-13 11:53:00,59.0,-99.9,-100.00,South,189,20.0,29.0,-999,-99.99,,,-99.99,,2013-10-13 17:53:00,
2013-10-13 12:00:00,62.0,-99.9,-100.00,SSW,196,21.0,25.0,-999,-99.99,,,-99.99,,2013-10-13 18:00:00,
2013-10-13 12:52:00,62.0,-99.9,-100.00,SSW,196,21.0,25.0,-999,-99.99,,,-99.99,,2013-10-13 18:52:00,
2013-10-13 13:00:00,64.0,-99.9,-100.00,South,173,20.0,27.0,-999,-99.99,,,-99.99,,2013-10-13 19:00:00,
2013-10-13 13:53:00,64.0,-99.9,-100.00,South,173,20.0,27.0,-999,-99.99,,,-99.99,,2013-10-13 19:53:00,
2013-10-13 14:00:00,66.0,-99.9,-100.00,SSE,152,13.0,24.0,-999,-99.99,,,-99.99,,2013-10-13 20:00:00,
2013-10-13 14:52:00,66.0,-99.9,-100.00,SSE,152,13.0,24.0,-999,-99.99,,,-99.99,,2013-10-13 20:52:00,
2013-10-13 15:00:00,66.0,-99.9,-100.00,SSE,154,16.0,26.0,-999,-99.99,,,-99.99,,2013-10-13 21:00:00,
2013-10-13 15:55:00,66.0,-99.9,-100.00,SSE,154,16.0,26.0,-999,-99.99,,,-99.99,,2013-10-13 21:55:00,
2013-10-13 16:00:00,64.0,-99.9,-100.00,SSE,156,14.0,30.0,-999,-99.99,,,-99.99,,2013-10-13 22:00:00,
2013-10-13 16:53:00,64.0,-99.9,-100.00,SSE,156,14.0,30.0,-999,-99.99,,,-99.99,,2013-10-13 22:53:00,
2013-10-13 17:00:00,64.0,-99.9,-100.00,SSE,160,16.0,25.0,-999,-99.99,,,-99.99,,2013-10-13 23:00:00,
2013-10-13 17:52:00,64.0,-99.9,-100.00,SSE,160,16.0,25.0,-999,-99.99,,,-99.99,,2013-10-13 23:52:00,
2013-10-13 18:00:00,60.0,-99.9,-100.00,SSE,148,13.0,19.0,-999,-99.99,,,-99.99,,2013-10-14 00:00:00,
2013-10-13 18:52:00,60.0,-99.9,-100.00,SSE,148,13.0,19.0,-999,-99.99,,,-99.99,,2013-10-14 00:52:00,
2013-10-13 19:00:00,60.0,-99.9,-100.00,SE,128,14.0,17.0,-999,-99.99,,,-99.99,,2013-10-14 01:00:00,
2013-10-13 19:52:00,60.0,-99.9,-100.00,SE,128,14.0,17.0,-999,-99.99,,,-99.99,,2013-10-14 01:52:00,
2013-10-13 20:00:00,59.0,-99.9,-100.00,SE,130,9.0,17.0,-999,-99.99,,,-99.99,,2013-10-14 02:00:00,
2013-10-13 20:52:00,59.0,-99.9,-100.00,SE,130,9.0,17.0,-999,-99.99,,,-99.99,,2013-10-14 02:52:00,
2013-10-13 21:00:00,59.0,-99.9,-100.00,SSE,147,10.0,23.0,-999,-99.99,,,-99.99,,2013-10-14 03:00:00,
2013-10-13 21:55:00,59.0,-99.9,-100.00,SSE,147,10.0,23.0,-999,-99.99,,,-99.99,,2013-10-14 03:55:00,
2013-10-13 22:00:00,57.0,-99.9,-100.00,SSE,150,16.0,25.0,-999,-99.99,,,-99.99,,2013-10-14 04:00:00,
2013-10-13 22:54:00,57.0,-99.9,-100.00,SSE,150,16.0,25.0,-999,-99.99,,,-99.99,,2013-10-14 04:54:00,
2013-10-13 23:00:00,57.0,-99.9,-100.00,SSE,157,8.0,24.0,-999,-99.99,,,-99.99,,2013-10-14 05:00:00,
2013-10-13 23:53:00,57.0,-99.9,-100.00,SSE,157,8.0,24.0,-999,-99.99,,,-99.99,,2013-10-14 05:53:00,